When you browse on this site, cookies collect data to enhance your experience and personalize the content and advertising you see.
Visit our Privacy Policy to learn more. By continuing to use the site, you agree to this use of cookies and data.
  • Em Portugal
  • Lista de países
  • Para 7 dias
  • Temperatura da água
  • Mapas de satélite
  • Mapa do tempo
  • Widgets de tempo
  • user-avatar
    Iniciar Sessão

    Previsão horária em Razgrad

    Hoje, 16 Novembro, Sexta-feira

    Tempo Temperatura Precipitação Vento Pressão Humidade
    00:00 +3°C° 0 mm 3 m/s 748 mmHg 81%
    01:00 +2°C° 0 mm 3 m/s 748 mmHg 83%
    02:00 +2°C° 0 mm 3 m/s 748 mmHg 83%
    03:00 +2°C° 0 mm 3 m/s 748 mmHg 83%
    04:00 +1°C° 0 mm 3 m/s 748 mmHg 83%
    05:00 +1°C° 0 mm 3 m/s 749 mmHg 83%
    06:00 +1°C° 0 mm 3 m/s 749 mmHg 83%
    07:00 +1°C° 0 mm 4 m/s 749 mmHg 83%
    08:00 +1°C° 0 mm 4 m/s 749 mmHg 82%
    09:00 +1°C° 0.1 mm 4 m/s 749 mmHg 80%
    10:00 +1°C° 0.1 mm 5 m/s 750 mmHg 78%
    11:00 +1°C° 0.1 mm 5 m/s 750 mmHg 76%
    12:00 +1°C° 0 mm 5 m/s 750 mmHg 72%
    13:00 +1°C° 0 mm 5 m/s 750 mmHg 68%
    14:00 +1°C° 0 mm 5 m/s 750 mmHg 72%
    15:00 0°C° 0.2 mm 5 m/s 750 mmHg 73%
    16:00 0°C° 0.2 mm 5 m/s 750 mmHg 74%
    17:00 0°C° 0.2 mm 4 m/s 750 mmHg 75%
    18:00 -1°C° 0.1 mm 4 m/s 751 mmHg 76%
    19:00 -1°C° 0.1 mm 4 m/s 751 mmHg 77%
    20:00 -1°C° 0.1 mm 4 m/s 751 mmHg 78%
    21:00 -1°C° 0.1 mm 4 m/s 751 mmHg 78%
    22:00 -1°C° 0.1 mm 4 m/s 751 mmHg 79%
    23:00 -2°C° 0.1 mm 4 m/s 751 mmHg 79%

    Amanhã, 17 Novembro, Sábado

    Tempo Temperatura Precipitação Vento Pressão Humidade
    00:00 -2°C° 0 mm 4 m/s 752 mmHg 80%
    01:00 -1°C° 0 mm 3 m/s 752 mmHg 81%
    02:00 -1°C° 0 mm 3 m/s 752 mmHg 82%
    03:00 -1°C° 0.1 mm 3 m/s 752 mmHg 83%
    04:00 -1°C° 0.1 mm 3 m/s 752 mmHg 84%
    05:00 -1°C° 0.1 mm 3 m/s 752 mmHg 85%
    06:00 -1°C° 0.1 mm 3 m/s 752 mmHg 86%
    07:00 -1°C° 0.1 mm 3 m/s 752 mmHg 86%
    08:00 -1°C° 0.1 mm 3 m/s 752 mmHg 86%
    09:00 0°C° 0.1 mm 3 m/s 752 mmHg 85%
    10:00 0°C° 0.1 mm 3 m/s 752 mmHg 83%
    11:00 +1°C° 0.1 mm 3 m/s 752 mmHg 82%
    12:00 +1°C° 0.1 mm 3 m/s 752 mmHg 82%
    13:00 +1°C° 0.1 mm 3 m/s 751 mmHg 82%
    14:00 0°C° 0.1 mm 4 m/s 751 mmHg 82%
    15:00 0°C° 0.1 mm 4 m/s 751 mmHg 84%
    16:00 0°C° 0.1 mm 4 m/s 751 mmHg 85%
    17:00 0°C° 0.1 mm 4 m/s 751 mmHg 87%
    18:00 0°C° 0.1 mm 4 m/s 751 mmHg 87%
    19:00 0°C° 0.1 mm 4 m/s 751 mmHg 87%
    20:00 0°C° 0.1 mm 4 m/s 751 mmHg 87%
    21:00 0°C° 0.1 mm 4 m/s 751 mmHg 87%
    22:00 0°C° 0.1 mm 4 m/s 751 mmHg 88%
    23:00 0°C° 0.1 mm 4 m/s 751 mmHg 88%

    Depois de amanhã, 18 Novembro, Domingo

    Tempo Temperatura Precipitação Vento Pressão Humidade
    00:00 0°C° 0.1 mm 4 m/s 751 mmHg 88%
    01:00 0°C° 0.1 mm 4 m/s 751 mmHg 88%
    02:00 +1°C° 0.1 mm 3 m/s 751 mmHg 88%
    03:00 +1°C° 0.1 mm 3 m/s 750 mmHg 88%
    04:00 0°C° 0.1 mm 3 m/s 750 mmHg 88%
    05:00 0°C° 0.1 mm 3 m/s 750 mmHg 88%
    06:00 0°C° 0 mm 3 m/s 750 mmHg 88%
    07:00 +1°C° 0 mm 2 m/s 750 mmHg 88%
    08:00 +1°C° 0 mm 2 m/s 750 mmHg 88%
    09:00 +2°C° 0 mm 2 m/s 750 mmHg 86%
    10:00 +3°C° 0 mm 2 m/s 749 mmHg 83%
    11:00 +3°C° 0 mm 2 m/s 749 mmHg 81%
    12:00 +4°C° 0 mm 2 m/s 749 mmHg 78%
    13:00 +5°C° 0 mm 2 m/s 748 mmHg 76%
    14:00 +5°C° 0 mm 2 m/s 747 mmHg 73%
    15:00 +5°C° 0 mm 2 m/s 747 mmHg 76%
    16:00 +4°C° 0 mm 2 m/s 746 mmHg 78%
    17:00 +5°C° 0 mm 1 m/s 746 mmHg 81%
    18:00 +5°C° 0 mm 1 m/s 745 mmHg 81%
    19:00 +3°C° 0 mm 2 m/s 745 mmHg 82%
    20:00 +3°C° 0 mm 2 m/s 745 mmHg 82%
    21:00 +3°C° 0.2 mm 2 m/s 744 mmHg 81%
    22:00 +3°C° 0.2 mm 2 m/s 744 mmHg 81%
    23:00 +3°C° 0.2 mm 2 m/s 743 mmHg 80%

    19 Novembro, Segunda-feira

    Tempo Temperatura Precipitação Vento Pressão Humidade
    00:00 +3°C° 0.7 mm 2 m/s 743 mmHg 81%
    01:00 +3°C° 0.7 mm 2 m/s 743 mmHg 82%
    02:00 +3°C° 0.7 mm 2 m/s 742 mmHg 83%
    03:00 +3°C° 0.7 mm 2 m/s 742 mmHg 84%
    04:00 +3°C° 0.7 mm 2 m/s 741 mmHg 86%
    05:00 +2°C° 0.7 mm 2 m/s 741 mmHg 87%
    06:00 +2°C° 0.4 mm 2 m/s 741 mmHg 88%
    07:00 +2°C° 0.4 mm 2 m/s 741 mmHg 89%
    08:00 +2°C° 0.4 mm 2 m/s 741 mmHg 90%
    09:00 +2°C° 0.4 mm 3 m/s 741 mmHg 90%
    10:00 +2°C° 0.4 mm 3 m/s 740 mmHg 89%
    11:00 +3°C° 0.4 mm 3 m/s 740 mmHg 89%
    12:00 +3°C° 0.5 mm 3 m/s 740 mmHg 89%
    13:00 +3°C° 0.5 mm 3 m/s 740 mmHg 88%
    14:00 +5°C° 0.5 mm 2 m/s 740 mmHg 88%
    15:00 +4°C° 0.7 mm 2 m/s 740 mmHg 89%
    16:00 +4°C° 0.7 mm 2 m/s 740 mmHg 90%
    17:00 +4°C° 0.7 mm 2 m/s 740 mmHg 92%
    18:00 +4°C° 0.2 mm 2 m/s 740 mmHg 92%
    19:00 +4°C° 0.2 mm 2 m/s 740 mmHg 92%
    20:00 +4°C° 0.2 mm 2 m/s 741 mmHg 93%
    21:00 +5°C° 0 mm 1 m/s 741 mmHg 93%
    22:00 +5°C° 0 mm 1 m/s 741 mmHg 94%
    23:00 +5°C° 0 mm 1 m/s 741 mmHg 95%

    20 Novembro, Terça-feira

    Tempo Temperatura Precipitação Vento Pressão Humidade
    00:00 +5°C° 0 mm 1 m/s 741 mmHg 95%
    01:00 +5°C° 0 mm 1 m/s 741 mmHg 95%
    02:00 +5°C° 0 mm 1 m/s 741 mmHg 96%
    03:00 +5°C° 0.1 mm 2 m/s 741 mmHg 96%
    04:00 +5°C° 0.1 mm 2 m/s 741 mmHg 96%
    05:00 +5°C° 0.1 mm 2 m/s 740 mmHg 96%
    06:00 +6°C° 0.8 mm 2 m/s 740 mmHg 96%
    07:00 +5°C° 0.8 mm 3 m/s 740 mmHg 96%
    08:00 +7°C° 0.8 mm 3 m/s 740 mmHg 95%
    09:00 +7°C° 0.4 mm 4 m/s 740 mmHg 93%
    10:00 +8°C° 0.4 mm 4 m/s 740 mmHg 90%
    11:00 +9°C° 0.4 mm 5 m/s 739 mmHg 88%
    12:00 +10°C° 0.3 mm 5 m/s 739 mmHg 88%
    13:00 +10°C° 0.3 mm 5 m/s 738 mmHg 88%
    14:00 +12°C° 0.3 mm 4 m/s 737 mmHg 88%
    15:00 +12°C° 0.5 mm 5 m/s 737 mmHg 89%
    16:00 +12°C° 0.5 mm 5 m/s 736 mmHg 90%
    17:00 +13°C° 0.5 mm 5 m/s 736 mmHg 91%
    18:00 +13°C° 0.8 mm 5 m/s 736 mmHg 90%
    19:00 +13°C° 0.8 mm 6 m/s 735 mmHg 89%
    20:00 +14°C° 0.8 mm 6 m/s 735 mmHg 88%
    21:00 +14°C° 0.2 mm 6 m/s 735 mmHg 86%
    22:00 +14°C° 0.2 mm 7 m/s 735 mmHg 84%
    23:00 +15°C° 0.2 mm 7 m/s 735 mmHg 82%

    21 Novembro, Quarta-feira

    Tempo Temperatura Precipitação Vento Pressão Humidade
    00:00 +15°C° 0.1 mm 7 m/s 734 mmHg 83%
    01:00 +15°C° 0.1 mm 7 m/s 734 mmHg 83%
    02:00 +15°C° 0.1 mm 6 m/s 734 mmHg 83%
    03:00 +15°C° 0.1 mm 6 m/s 734 mmHg 83%
    04:00 +15°C° 0.1 mm 6 m/s 733 mmHg 83%
    05:00 +15°C° 0.1 mm 6 m/s 733 mmHg 83%
    06:00 +14°C° 0 mm 6 m/s 733 mmHg 84%
    07:00 +14°C° 0 mm 5 m/s 733 mmHg 85%
    08:00 +14°C° 0 mm 5 m/s 733 mmHg 86%
    09:00 +15°C° 0 mm 5 m/s 733 mmHg 79%
    10:00 +17°C° 0 mm 5 m/s 733 mmHg 73%
    11:00 +19°C° 0 mm 5 m/s 733 mmHg 66%
    12:00 +19°C° 0 mm 5 m/s 733 mmHg 62%
    13:00 +20°C° 0 mm 4 m/s 733 mmHg 58%
    14:00 +20°C° 0 mm 4 m/s 733 mmHg 55%
    15:00 +19°C° 0 mm 3 m/s 733 mmHg 61%
    16:00 +17°C° 0 mm 3 m/s 733 mmHg 67%
    17:00 +16°C° 0 mm 2 m/s 733 mmHg 73%
    18:00 +15°C° 0.2 mm 2 m/s 734 mmHg 76%
    19:00 +15°C° 0.2 mm 1 m/s 734 mmHg 80%
    20:00 +14°C° 0.2 mm 1 m/s 734 mmHg 83%
    21:00 +14°C° 0.1 mm 1 m/s 735 mmHg 84%
    22:00 +14°C° 0.1 mm 1 m/s 735 mmHg 84%
    23:00 +13°C° 0.1 mm 1 m/s 736 mmHg 85%
    Mostrar mais